FW8282 Weather Reports


Display with metric or nautical units.
time (UTC)temp
F
wind
direction
speed
MPH
gust
MPH
rain 1hr
in
rain 24hr
in
rain mn
in
humidity
%
barometer
mb
20260502164119 84 255 7.0 8.0 0.00 0.00 0.00 76 1010.0
20260502163615 84 248 4.0 9.0 0.00 0.00 0.00 76 1009.7
20260502163111 85 248 4.0 5.0 0.00 0.00 0.00 76 1010.1
20260502162608 85 291 6.0 9.0 0.00 0.00 0.00 75 1010.3
20260502162105 85 249 6.0 9.0 0.00 0.00 0.00 74 1010.2
20260502161602 85 216 7.0 11.0 0.00 0.00 0.00 74 1010.1
20260502161059 87 266 10.0 15.0 0.00 0.00 0.00 74 1010.1
20260502160557 86 259 1.0 3.0 0.00 0.00 0.00 74 1010.1
20260502152010 84 259 3.0 5.0 0.00 0.00 0.00 74 1010.5
20260502151507 84 262 2.0 6.0 0.00 0.00 0.00 74 1010.5
20260502151004 84 226 1.0 3.0 0.00 0.00 0.00 75 1010.2
20260502150502 84 254 4.0 8.0 0.00 0.00 0.00 75 1010.2
20260502130347 75 231 0.0 0.0 0.00 0.00 0.00 89 1009.7
20260502123330 72 212 0.0 0.0 0.00 0.00 0.00 97 1009.4
20260502122827 72 198 0.0 0.0 0.00 0.00 0.00 98 1009.2
20260502122322 72 224 0.0 0.0 0.00 0.00 0.00 98 1009.2
20260502121821 72 213 0.0 0.0 0.00 0.00 0.00 98 1009.2
20260502121318 71 146 0.0 0.0 0.00 0.00 0.00 98 1009.0
20260502120815 71 166 0.0 0.0 0.00 0.00 0.00 98 1008.9
20260502120311 71 174 0.0 0.0 0.00 0.00 0.00 98 1008.8
20260502115809 70 165 0.0 0.0 0.00 0.00 0.00 98 1008.9
20260502115306 70 164 0.0 0.0 0.00 0.00 0.00 98 1008.9
20260502114802 70 154 0.0 0.0 0.00 0.00 0.00 98 1008.6
20260502114259 69 166 0.0 0.0 0.00 0.00 0.00 98 1008.8
20260502113756 69 170 0.0 0.0 0.00 0.00 0.00 98 1008.8
20260502113254 69 167 0.0 0.0 0.00 0.00 0.00 98 1008.6
20260502112752 69 165 0.0 0.0 0.00 0.00 0.00 98 1008.9
20260502112249 69 160 0.0 0.0 0.00 0.00 0.00 98 1008.8
20260502111746 69 169 0.0 0.0 0.00 0.00 0.00 98 1008.9
20260502111244 68 176 0.0 0.0 0.00 0.00 0.00 98 1008.7
20260502110741 68 172 0.0 0.0 0.00 0.00 0.00 98 1008.7
20260502110239 68 170 0.0 0.0 0.00 0.00 0.00 98 1008.7
20260502105737 68 170 0.0 0.0 0.00 0.00 0.00 98 1008.8
20260502105232 68 169 0.0 0.0 0.00 0.00 0.00 98 1008.5
20260502104730 68 169 0.0 0.0 0.00 0.00 0.00 98 1008.6
20260502104228 68 169 0.0 0.0 0.00 0.00 0.00 98 1008.5
20260502103725 68 169 0.0 0.0 0.00 0.00 0.00 98 1008.6
20260502103223 68 169 0.0 0.0 0.00 0.00 0.00 98 1008.6
20260502102719 68 169 0.0 0.0 0.00 0.00 0.00 98 1008.5
20260502102216 68 169 0.0 0.0 0.00 0.00 0.00 98 1008.6
20260502101714 68 169 0.0 0.0 0.00 0.00 0.00 98 1008.5
20260502101212 68 161 0.0 0.0 0.00 0.00 0.00 98 1008.5
20260502100710 68 169 0.0 0.0 0.00 0.00 0.00 98 1008.8
20260502100208 68 169 0.0 0.0 0.00 0.00 0.00 98 1008.6
20260502091142 68 169 0.0 0.0 0.00 0.00 0.00 97 1008.8
20260502090639 68 169 0.0 0.0 0.00 0.00 0.00 98 1008.9
20260502090136 68 161 0.0 0.0 0.00 0.00 0.00 97 1008.9
20260502071534 68 161 0.0 0.0 0.00 0.00 0.00 97 1009.6
20260502071032 68 162 0.0 0.0 0.00 0.00 0.00 97 1009.5
20260502070530 68 164 0.0 0.0 0.00 0.00 0.00 97 1009.3
20260502070027 68 161 0.0 0.0 0.00 0.00 0.00 97 1009.7
20260502065526 68 161 0.0 0.0 0.00 0.00 0.00 97 1009.5
20260502065023 69 148 0.0 0.0 0.00 0.00 0.00 97 1009.6
20260502064521 68 162 0.0 0.0 0.00 0.00 0.00 96 1009.8
20260502064018 69 161 0.0 0.0 0.00 0.00 0.00 97 1009.7
20260502063516 69 162 0.0 0.0 0.00 0.00 0.00 97 1009.5
20260502063014 69 165 0.0 0.0 0.00 0.00 0.00 97 1010.0
20260502062510 69 162 0.0 0.0 0.00 0.00 0.00 96 1009.9
20260502062009 68 163 0.0 0.0 0.00 0.00 0.00 96 1009.9
20260502061506 68 162 0.0 0.0 0.00 0.00 0.00 96 1010.0
20260502061003 68 152 0.0 0.0 0.00 0.00 0.00 96 1010.1
20260502060458 68 144 0.0 0.0 0.00 0.00 0.00 96 1010.3
20260502055955 69 149 0.0 0.0 0.00 0.00 0.00 96 1010.1
20260502055452 69 151 0.0 0.0 0.00 0.00 0.00 96 1010.1
20260502054952 69 141 0.0 0.0 0.00 0.00 0.00 96 1010.2
20260502054450 69 151 0.0 0.0 0.00 0.00 0.00 96 1010.2
20260502053947 69 151 0.0 0.0 0.00 0.00 0.00 96 1010.3
20260502053444 69 152 0.0 0.0 0.00 0.00 0.00 96 1010.5
20260502052942 69 150 0.0 0.0 0.00 0.00 0.00 96 1010.3
20260502052439 69 148 0.0 0.0 0.00 0.00 0.00 96 1010.4
20260502051938 69 162 0.0 0.0 0.00 0.00 0.00 96 1010.4
20260502051435 69 151 0.0 0.0 0.00 0.00 0.00 95 1010.4
20260502050932 69 151 0.0 0.0 0.00 0.00 0.00 95 1010.8
20260502050429 70 151 0.0 0.0 0.00 0.00 0.00 95 1010.5
20260502045926 70 139 0.0 0.0 0.00 0.00 0.00 95 1010.3
20260502045423 70 151 0.0 0.0 0.00 0.00 0.00 95 1010.4
20260502044920 70 145 0.0 0.0 0.00 0.00 0.00 95 1010.5
20260502044415 70 150 0.0 0.0 0.00 0.00 0.00 95 1010.5
20260502043912 71 150 0.0 0.0 0.00 0.00 0.00 95 1010.6
20260502043410 71 149 0.0 0.0 0.00 0.00 0.00 95 1010.6
20260502042909 71 147 0.0 0.0 0.00 0.00 0.00 95 1010.5
20260502042409 70 149 0.0 0.0 0.00 0.00 0.00 95 1010.4
20260502041904 71 144 0.0 0.0 0.00 0.00 0.00 95 1010.5
20260502041402 71 145 0.0 0.0 0.00 0.00 0.00 95 1010.5
20260502040859 71 149 0.0 0.0 0.00 0.00 0.00 95 1010.3
20260502040355 71 138 0.0 0.0 0.00 0.00 0.00 94 1010.4
20260502035851 71 141 0.0 0.0 0.00 0.00 0.00 94 1010.4
20260502035348 71 142 0.0 0.0 0.00 0.00 0.00 94 1010.4
20260502034845 71 156 0.0 0.0 0.00 0.00 0.00 94 1010.3
20260502034344 71 157 0.0 0.0 0.00 0.00 0.00 94 1010.4
20260502033842 72 159 0.0 0.0 0.00 0.00 0.00 94 1010.4
20260502033339 72 159 0.0 0.0 0.00 0.00 0.00 94 1010.5
20260502032836 72 149 0.0 0.0 0.00 0.00 0.00 94 1010.7
20260502032332 71 156 0.0 0.0 0.00 0.00 0.00 94 1010.6
20260502031830 72 150 0.0 0.0 0.00 0.00 0.00 93 1010.2
20260502031328 72 154 0.0 0.0 0.00 0.00 0.00 93 1010.4
20260502030826 71 155 0.0 0.0 0.00 0.00 0.00 93 1010.5
20260502030324 72 156 0.0 0.0 0.00 0.00 0.00 93 1010.5
20260502025821 72 149 0.0 0.0 0.00 0.00 0.00 92 1010.4
20260502025319 73 150 0.0 0.0 0.00 0.00 0.00 92 1010.6
20260502024816 73 147 0.0 0.0 0.00 0.00 0.00 92 1010.4
20260502024314 73 150 0.0 0.0 0.00 0.00 0.00 92 1010.4
20260502023812 73 147 0.0 0.0 0.00 0.00 0.00 91 1010.2
20260502023309 73 156 0.0 0.0 0.00 0.00 0.00 91 1010.3
20260502022807 74 155 0.0 0.0 0.00 0.00 0.00 91 1010.1
20260502022306 74 111 0.0 0.0 0.00 0.00 0.00 91 1010.1
20260502021800 74 201 0.0 0.0 0.00 0.00 0.00 91 1010.2
20260502021257 75 134 0.0 0.0 0.00 0.00 0.00 90 1010.2
20260502020754 75 174 0.0 0.0 0.00 0.00 0.00 90 1010.1
20260502020252 75 168 0.0 0.0 0.00 0.00 0.00 90 1010.2
20260502015749 75 202 0.0 0.0 0.00 0.00 0.00 89 1010.2
20260502015245 75 163 0.0 0.0 0.00 0.00 0.00 89 1010.0
20260502014743 75 148 0.0 0.0 0.00 0.00 0.00 89 1010.3
20260502014240 76 313 0.0 0.0 0.00 0.00 0.00 88 1010.3
20260502013736 76 161 0.0 0.0 0.00 0.00 0.00 88 1010.3
20260502013231 76 188 0.0 0.0 0.00 0.00 0.00 88 1010.4
20260502012729 76 247 0.0 0.0 0.00 0.00 0.00 87 1010.2
20260502012226 76 172 0.0 0.0 0.00 0.00 0.00 87 1010.1
20260502011724 76 224 0.0 0.0 0.00 0.00 0.00 87 1010.2
20260502011219 77 316 0.0 0.0 0.00 0.00 0.00 86 1010.3
20260502010717 77 242 0.0 0.0 0.00 0.00 0.00 86 1010.2
20260502010213 77 280 0.0 0.0 0.00 0.00 0.00 85 1010.1
20260502005710 77 255 0.0 0.0 0.00 0.00 0.00 85 1010.3
20260502005208 77 271 0.0 0.0 0.00 0.00 0.00 84 1010.1
20260502004704 77 226 1.0 3.0 0.00 0.00 0.00 83 1010.1
20260502004201 78 174 0.0 0.0 0.00 0.00 0.00 83 1010.1
20260502003659 78 10 0.0 0.0 0.00 0.00 0.00 82 1010.1
20260502003155 78 200 0.0 0.0 0.00 0.00 0.00 82 1009.8
20260502002651 78 251 0.0 0.0 0.00 0.00 0.00 81 1009.8
20260502002150 79 353 0.0 0.0 0.00 0.00 0.00 80 1009.7
20260502001646 79 335 0.0 0.0 0.00 0.00 0.00 80 1009.7
20260502001144 79 276 1.0 2.0 0.00 0.00 0.00 79 1009.7
20260502000642 80 273 1.0 3.0 0.00 0.00 0.00 78 1009.7
20260502000139 80 282 1.0 1.0 0.00 0.00 0.00 76 1009.6
20260501235635 80 321 0.0 1.0 0.00 0.00 0.00 74 1009.5
20260501235131 81 233 0.0 0.0 0.00 0.00 0.00 71 1009.4
20260501234626 81 250 2.0 3.0 0.00 0.00 0.00 68 1009.5
20260501234124 81 245 0.0 0.0 0.00 0.00 0.00 67 1009.2
20260501233622 82 268 0.0 0.0 0.00 0.00 0.00 66 1009.3
20260501233119 82 278 0.0 0.0 0.00 0.00 0.00 66 1009.4
20260501232615 82 334 1.0 3.0 0.00 0.00 0.00 65 1009.2
20260501232113 82 327 3.0 3.0 0.00 0.00 0.00 66 1009.0
20260501231610 83 332 0.0 1.0 0.00 0.00 0.00 64 1009.2
20260501231108 84 276 5.0 6.0 0.00 0.00 0.00 63 1009.0
20260501230606 84 263 4.0 6.0 0.00 0.00 0.00 63 1009.0
20260501230104 84 341 0.0 0.0 0.00 0.00 0.00 63 1009.0
20260501225602 84 1 3.0 5.0 0.00 0.00 0.00 60 1008.9
20260501225057 85 284 5.0 7.0 0.00 0.00 0.00 60 1008.9
20260501224555 86 319 3.0 3.0 0.00 0.00 0.00 61 1008.9
20260501224052 86 237 0.0 0.0 0.00 0.00 0.00 57 1008.8
20260501223548 86 231 0.0 0.0 0.00 0.00 0.00 57 1009.1
20260501223044 86 275 0.0 0.0 0.00 0.00 0.00 57 1008.8
20260501222541 86 301 1.0 3.0 0.00 0.00 0.00 56 1008.6
20260501222038 86 276 0.0 1.0 0.00 0.00 0.00 55 1008.5
20260501221534 87 259 4.0 7.0 0.00 0.00 0.00 53 1008.7
20260501221032 88 314 4.0 6.0 0.00 0.00 0.00 54 1008.6
20260501220530 87 248 1.0 3.0 0.00 0.00 0.00 54 1008.4
20260501220026 86 346 4.0 8.0 0.00 0.00 0.00 59 1008.7
20260501215522 86 252 0.0 0.0 0.00 0.00 0.00 58 1008.5
20260501215018 87 241 3.0 5.0 0.00 0.00 0.00 59 1008.4
20260501214514 87 270 4.0 5.0 0.00 0.00 0.00 56 1008.5
20260501214009 88 9 2.0 3.0 0.00 0.00 0.00 55 1008.4
20260501213507 88 258 3.0 5.0 0.00 0.00 0.00 55 1008.6
20260501213002 87 138 5.0 7.0 0.00 0.00 0.00 56 1008.5
20260501212458 87 266 7.0 8.0 0.00 0.00 0.00 54 1008.6
20260501211956 88 261 0.0 2.0 0.00 0.00 0.00 56 1008.5
20260501211453 88 267 0.0 0.0 0.00 0.00 0.00 54 1008.7
20260501210950 88 253 2.0 5.0 0.00 0.00 0.00 55 1008.6
20260501210447 87 242 1.0 2.0 0.00 0.00 0.00 55 1008.7
20260501205943 87 274 7.0 8.0 0.00 0.00 0.00 55 1008.7
20260501205440 87 260 4.0 5.0 0.00 0.00 0.00 53 1008.8
20260501204938 87 279 2.0 3.0 0.00 0.00 0.00 54 1008.7
20260501204433 86 249 5.0 5.0 0.00 0.00 0.00 56 1008.5
20260501203930 86 281 0.0 1.0 0.00 0.00 0.00 56 1008.6
20260501203427 86 277 3.0 3.0 0.00 0.00 0.00 55 1008.6
20260501202924 87 277 5.0 7.0 0.00 0.00 0.00 53 1008.6
20260501202421 87 262 0.0 1.0 0.00 0.00 0.00 54 1008.7
20260501201917 87 16 6.0 7.0 0.00 0.00 0.00 52 1008.7
20260501201415 88 258 2.0 6.0 0.00 0.00 0.00 53 1008.5
20260501200911 88 352 2.0 5.0 0.00 0.00 0.00 52 1008.6
20260501200408 87 319 5.0 7.0 0.00 0.00 0.00 55 1008.8
20260501195906 87 209 0.0 0.0 0.00 0.00 0.00 55 1009.0
20260501195402 89 264 6.0 9.0 0.00 0.00 0.00 51 1009.1
20260501194858 88 285 4.0 6.0 0.00 0.00 0.00 55 1009.0
20260501194354 88 241 1.0 2.0 0.00 0.00 0.00 53 1009.3
20260501193850 89 287 5.0 7.0 0.00 0.00 0.00 49 1009.5
20260501193349 88 279 0.0 0.0 0.00 0.00 0.00 50 1009.6
20260501192846 88 252 3.0 5.0 0.00 0.00 0.00 55 1010.1
20260501192343 88 342 6.0 7.0 0.00 0.00 0.00 55 1009.6
20260501191840 88 229 0.0 0.0 0.00 0.00 0.00 54 1009.8
20260501191337 88 282 3.0 3.0 0.00 0.00 0.00 57 1009.8
20260501190834 88 297 5.0 6.0 0.00 0.00 0.00 57 1010.3
20260501190330 88 323 3.0 5.0 0.00 0.00 0.00 57 1010.1
20260501185825 87 211 0.0 1.0 0.00 0.00 0.00 59 1010.2
20260501185321 87 282 7.0 9.0 0.00 0.00 0.00 58 1010.3
20260501184817 87 290 4.0 5.0 0.00 0.00 0.00 59 1010.2
20260501184313 86 240 5.0 7.0 0.00 0.00 0.00 61 1010.6
20260501183809 87 347 1.0 2.0 0.00 0.00 0.00 59 1010.4
20260501183307 87 210 5.0 7.0 0.00 0.00 0.00 59 1010.7
20260501182803 88 280 5.0 6.0 0.00 0.00 0.00 58 1010.7
20260501182300 88 10 3.0 7.0 0.00 0.00 0.00 57 1010.7
20260501181756 87 280 4.0 5.0 0.00 0.00 0.00 58 1010.7
20260501181254 87 212 3.0 3.0 0.00 0.00 0.00 59 1010.5
20260501180751 87 322 3.0 3.0 0.00 0.00 0.00 58 1010.6
20260501180247 87 266 3.0 5.0 0.00 0.00 0.00 59 1010.7
20260501175744 88 262 2.0 6.0 0.00 0.00 0.00 58 1010.8
20260501175241 87 220 0.0 0.0 0.00 0.00 0.00 60 1010.8
20260501174737 86 235 6.0 8.0 0.00 0.00 0.00 61 1010.7
20260501174235 86 266 0.0 1.0 0.00 0.00 0.00 61 1010.7
20260501173733 86 165 0.0 0.0 0.00 0.00 0.00 62 1010.6
20260501173230 86 261 3.0 7.0 0.00 0.00 0.00 61 1011.2
20260501172726 87 284 6.0 9.0 0.00 0.00 0.00 61 1011.0
20260501172221 87 275 0.0 0.0 0.00 0.00 0.00 61 1011.1
20260501171717 86 249 1.0 5.0 0.00 0.00 0.00 64 1011.1
20260501171215 87 251 0.0 0.0 0.00 0.00 0.00 62 1011.1
20260501170711 86 295 2.0 6.0 0.00 0.00 0.00 62 1011.3
20260501170208 86 268 2.0 5.0 0.00 0.00 0.00 60 1011.3